www.pogodaiklimat.ru

Погода и климат >> Архив погоды >> Италия >> Капо Карбонара


ПОГОДА на Капо Карбонара

  • Прогноз погоды на Капо Карбонара
  • Монитор погоды на Капо Карбонара

АРХИВ ПОГОДЫ на Капо Карбонара

Время (UTC), дата Ветер
(напр.,м/с)
 
Видим.   Явления Облачность Т
(С)
Тd
(С)
f
(%)
Тe
(С)
Тes
(С)
Комфортность P
(гПа)
Po
(гПа)
Тmin
(С)
Tmax
(С)
R
(мм)
R24
(мм)
S
(см)
09 17.04 В 6 20 км 1/1 600 м
[Cu hum]
+15.6 +13.7 88 +14 +19 1020.0 1005.9
12 17.04 В 7 20 км 1/1 600 м
[Cu hum]
+18.0 +14.4 79 +17 +21 1019.6 1005.7
15 17.04 В 7 20 км 1/1 600 м
[Cu med, cong]
+18.0 +14.4 79 +17 +19 1019.2 1005.2
18 17.04 В 7 20 км 4/1 600 м
[Cu med, cong Ci fib]
+15.8 +12.3 80 +14 +14 1019.2 1005.2 +19.0
21 17.04 З 8 20 км 1/1 600 м
[Cu hum]
+13.6 +10.2 80 +11 +11 1019.8 1005.6
00 18.04 СВ 8 20 км 1/1 600 м
[Cu hum]
+13.0 +9.7 80 +10 +10 1020.0 1005.8
03 18.04 СВ 10 20 км 5/4 600 м
[Cu med, cong Ci fib]
+13.0 +9.3 78 +10 +10 1019.2 1005.0
06 18.04 СВ 11 10 км 8/4 600 м
[Cu med, cong Ci fib]
+13.8 +10.4 80 +11 +11 1019.4 1005.2 +13.0
09 18.04 В 13 20 км 8/3 600 м
[Cu med, cong Ci fib]
+15.4 +11.6 78 +13 +13 1019.4 1005.3
12 18.04 СВ 14 10 км 8/6 540 м
[Cu med, cong As trans Ci fib]
+16.2 +12.3 78 +14 +14 1019.1 1005.0
15 18.04 В 11 10 км 6/4 540 м
[Cu med, cong As trans Ci fib]
+16.2 +12.3 78 +14 +14 1018.9 1004.9
18 18.04 СВ 15 10 км 8/8 450 м
[Cu Sc]
+14.2 +10.4 78 +11 +11 1018.9 1004.8 +18.0
21 18.04 В 12 10 км 5/5 450 м
[Cu Sc]
+14.0 +10.2 78 +11 +11 1020.1 1006.0
00 19.04 СВ 14 10 км 8/3 540 м
[Cu hum As trans Ci fib]
+14.0 +10.2 78 +11 +11 1020.5 1006.3
03 19.04 СВ 13 10 км 8/3 540 м
[Cu hum As trans Ci fib]
+14.0 +10.2 78 +11 +11 1020.4 1006.2
06 19.04 СВ 12 10 км 8/4 450 м
[Sc As trans Ci fib]
+14.6 +10.8 78 +12 +12 1021.5 1007.3 +14.0
09 19.04 В 11 10 км 5/1 450 м
[Cu med, cong Ac trans Ci fib]
+17.0 +13.1 78 +15 +15 1023.2 1009.1
12 19.04 В 10 10 км 5/1 540 м
[Cu med, cong Ac trans Ci fib]
+19.0 +14.9 77 +19 +20 1022.9 1009.0
15 19.04 В 10 10 км 9/1 540 м
[Cu hum Ac trans Cs]
+17.8 +13.9 78 +17 +17 1023.2 1009.2
18 19.04 В 11 10 км 10/0 2000 м
[Ac trans Cs]
+15.0 +11.8 81 +12 +12 1023.2 1009.1 +19.8
21 19.04 В 11 10 км 10/0 2000 м
[Ac As Cs]
+15.0 +11.5 80 +12 +12 1023.7 1009.5
00 20.04 В 12 10 км 10/0 2000 м
[Ac As Cs]
+15.0 +11.6 80 +12 +12 1022.9 1008.8
03 20.04 В 12 10 км 10/1 300 м
[St Ac As Cs]
+14.0 +10.8 81 +11 +11 1022.0 1007.8
06 20.04 В 12 10 км 10/1 300 м
[St As op Cs]
+14.4 +10.6 78 +11 +11 1022.1 1007.9 +14.0
09 20.04 В 14 10 км 10/3 300 м
[Frnb As op Cs]
+15.6 +11.8 78 +13 +13 1021.1 1007.0
12 20.04 В 15 10 км 10/3 300 м
[Frnb Ac As Cs]
+18.0 +14.1 78 +16 +16 1020.3 1006.3
15 20.04 В 12 10 км 10/3 300 м
[Frnb Ac As Cs]
+16.4 +12.7 79 +14 +14 1019.3 1005.2
18 20.04 В 15 10 км 10/4 450 м
[Sc Ac As Cs]
+15.0 +11.5 80 +12 +12 1017.1 1003.1 +18.4
21 20.04 В 13 10 км 10/4 450 м
[Sc Ac As]
+15.0 +11.5 80 +12 +12 1017.5 1003.4
00 21.04 В 11 10 км 10/1 450 м
[Frnb As trans Cs]
+15.0 +11.5 80 +12 +12 1017.4 1003.3
03 21.04 В 13 10 км 10/1 450 м
[St Ac As Cs]
+15.0 +11.2 78 +12 +12 1015.6 1001.5
06 21.04 В 14 10 км 9/4 450 м
[Sc Ac As]
+14.8 +11.2 79 +12 +12 1014.2 1000.1 +14.6
09 21.04 СВ 21 10 км 10/0 2000 м
[Ac As]
+16.0 +12.6 80 +13 +13 1012.1 998.1
12 21.04 В 15 10 км 10/0
[Ac As]
+18.0 +13.5 75 +16 +16 1011.8 997.9
15 21.04 В 14 10 км 10/0 2000 м
[Ac As]
+15.8 +12.0 78 +13 +13 1010.0 996.0
18 21.04 В 15 10 км 10/0 2000 м
[Ac As]
+15.8 +12.3 80 +13 +13 1007.1 993.2 +18.2
21 21.04 В 13 10 км 10/0 2000 м
[Ac As]
+15.8 +12.3 80 +13 +13 1007.9 994.0
00 22.04 В 13 10 км 10/0 2000 м
[Ac As]
+15.0 +11.5 80 +12 +12 1007.8 993.8
03 22.04 СВ 15 10 км 8/3 600 м
[Cu med, cong Ac As]
+16.2 +12.7 80 +14 +14 1003.7 989.8
06 22.04 СВ 20 10 км 10/0 2000 м
[Ac As]
+16.0 +12.6 80 +13 +13 999.2 985.4 +15.0
09 22.04 В 10 10 км 10/5 600 м
[Cu Sc Ac As]
+16.8 +13.1 79 +15 +15 1000.9 987.1
12 22.04 СВ 14 4000 м дымка 10/6 600 м
[Cu Sc Ac trans]
+17.2 +13.7 80 +15 +15 999.5 985.7
15 22.04 В 9 4000 м дымка 10/6 540 м
[Cu Sc Ac trans]
+17.4 +13.9 80 +16 +16 998.8 985.1
18 22.04 В 6 4000 м дымка 10/6 450 м
[Sc Ac trans]
+15.8 +12.3 80 +14 +14 999.3 985.5 +17.8
21 22.04 ЮВ 2 4000 м дымка {дождь} 10/6 450 м
[Sc Ac trans]
+15.2 +11.8 80 +15 +15 1000.3 986.4
00 23.04 ЮЗ 9 10 км {дождь} 8/4 450 м
[Sc Ac trans Ci fib]
+14.2 +10.6 79 +12 +12 1000.9 987.0 0.6
03 23.04 ЮЗ 8 10 км 4/3 450 м
[St Ac trans Ci fib]
+13.6 +9.8 78 +11 +11 1000.9 986.9
06 23.04 З 11 10 км 6/5 400 м
[Cu Sc Ac trans]
+14.0 +10.1 77 +11 +11 1001.7 987.8 +13.6 0.8
09 23.04 Ю 6 10 км 10/4 450 м
[Sc Ac trans]
+15.8 +12.0 78 +14 +16 1004.0 990.2
12 23.04 ЮЗ 10 10 км 6/4 450 м
[Sc Ac trans Ci fib]
+18.2 +14.2 77 +17 +18 1004.7 990.9
15 23.04 ЮЗ 10 10 км 9/3 450 м
[Sc Ac trans Ci fib]
+18.0 +14.5 80 +17 +17 1005.5 991.7
18 23.04 ЮЗ 6 10 км 1/1 450 м
[Cu med, cong]
+15.4 +12.3 82 +14 +14 1007.5 993.5 +18.6
21 23.04 ЮВ 2 10 км ясно +15.0 +11.5 80 +15 +15 1009.7 995.7
00 24.04 Ю 4 10 км ясно +15.0 +11.2 78 +14 +14 1010.8 996.8
03 24.04 СВ 5 10 км ясно +15.0 +10.6 75 +14 +14 1010.5 996.5
06 24.04 В 6 10 км 1/0
[Ci fib]
+16.0 +12.0 77 +15 +15 1010.9 997.0 +14.4

 

Местоположение метеостанции Капо Карбонара (Италия): широта 39.10 долгота 9.52 высота над уровнем моря 118 м.

В архиве по умолчанию представлена погода на Капо Карбонара за последнюю неделю. Архивные данные за месяц целиком и за предыдущие месяцы, начиная с января 2011 года, Вы можете получить, выбрав интересующий диапазон дат из раскрывающегося списка и нажав кнопку "Ввод!".


*Определитесь, кто Вы:
робот инопланетянин человек

Внимание! Время в таблицах - всемирное. Для получения местного времени необходимо прибавить поправку, которая равна 1 ч.

Смотрите также архив погоды в соседних городах и на ближайших метеорологических станциях:

Погода в Дечимоманну (Италия) (55 км)
Погода на Капо Беллависто (Италия) (94 км)
Погода на Капо Фраска (Италия) (116 км)
Погода на Капо Кацция (Италия) (200 км)
Погода в Ольвии (Италия) (200 км)
Погода в Альгеро (Италия) (200 км)
Погода в Бизерте (Тунис) (207 км)
Погода в Табарке (Тунис) (248 км)
Погода на Мысе Пертюзато (Франция) (254 км)
Погода в Тунисе (Тунис) (260 км)

Пояснения к столбцам:

Ветер - указаны скорость ветра в м/с - средняя за 10 мин, порывы в срок и между сроками (в фигурных скобках) и направление, откуда дует ветер: С - северный, СВ - северо-восточный, В - восточный, ЮВ - юго-восточный, Ю - южный, ЮЗ - юго-западный, З - западный, СЗ - северо-западный.
Видимость - горизонтальная дальность видимости в метрах или километрах. При видимости от 1 до 10 км при отсутствии осадков обычно наблюдается дымка, при ухудшении видимости до 1 км и менее - туман. В сухую погоду видимость может ухудшаться дымом, пылью или мглою.
Явления - указаны атмосферные явления, наблюдавшиеся в срок или в последний час перед сроком; фигурными скобками обозначены явления, наблюдавшиеся между сроками (за 1-3 часа до срока); квадратными скобками обозначены град или гололедные отложения с указанием их диаметра в мм.
Облачность - указаны через наклонную черту общая и нижняя облачность в баллах и высота нижней границы облаков в метрах; квадратными скобками обозначены формы облаков: Ci - перистые, Cs - перисто-слоистые, Cc - перисто-кучевые, Ac - высококучевые, As - высокослоистые, Sc - слоисто-кучевые, Ns - слоисто-дождевые, Cu - кучевые, Cb - кучево-дождевые. Подробнее классификацию облаков см. в Атласе облаков (PDF).
T - Температура воздуха - температура, измеренная на высоте 2 м над землей.
Td - Температура точки росы - температура, при понижении до которой содержащийся в воздухе водяной пар достигнет насыщения.
f - Относительная влажность воздуха - влажноcть воздуха, измеренная на высоте 2 м над землей.
Te - Эффективная температура - температура, которую ощущает одетый по сезону человек в тени. Характеристика душности погоды. При расчете учитывается влияние влажности воздуха и скорости ветра на теплоощущения человека.
Tes - Эффективная температура на солнце - температура, которую ощущает человек, с поправкой на солнечный нагрев. Характеристика знойности погоды. Зависит от высоты солнца над горизонтом, облачности и скорости ветра. Ночью, в пасмурную погоду, а также при ветре 12 м/с и более поправка равна нулю.
P - Атмосферное давление - приведенное к уровню моря атмосферное давление.
Po - Атмосферное давление - измеренное на уровне метеостанции атмосферное давление.
Tmin - Минимальная температура - минимум температуры воздуха на высоте 2 м над землей.
Tmax - Максимальная температура - максимум температуры воздуха на высоте 2 м над землей.
R - Количество осадков - Количество выпавших осадков за период времени, мм. При наведении курсора мыши на число - период времени, за который выпало указанное количество осадков.
R24 - Количество осадков - Количество выпавших осадков за 24 часа, мм.
S - Снежный покров - Высота снежного покрова, см. При наведении курсора мыши на число - состояние снежного покрова и степень покрытия местности в баллах.